When you browse on this site, cookies collect data to enhance your experience and personalize the content and advertising you see.
Visit our Privacy Policy to learn more. By continuing to use the site, you agree to this use of cookies and data.
  • In Romania
  • List of Countries
  • For 7 days
  • Water Temperature
  • Weather Map
  • Weather Widgets
  • user-avatar
    Login

    Hourly Weather Knyazhevo

    Today, 15 October, Tuesday

    Time Temperature Precipitation Wind Pressure Humidity
    00:00 +15°C° 0 mm 7 mps 740 mmHg 81%
    01:00 +14°C° 0 mm 7 mps 740 mmHg 83%
    02:00 +14°C° 0 mm 7 mps 740 mmHg 84%
    03:00 +13°C° 0 mm 6 mps 740 mmHg 87%
    04:00 +13°C° 0 mm 6 mps 740 mmHg 89%
    05:00 +13°C° 0 mm 6 mps 740 mmHg 91%
    06:00 +11°C° 0 mm 6 mps 741 mmHg 93%
    07:00 +11°C° 0 mm 6 mps 741 mmHg 89%
    08:00 +13°C° 0 mm 6 mps 742 mmHg 85%
    09:00 +13°C° 0 mm 6 mps 743 mmHg 81%
    10:00 +13°C° 0 mm 6 mps 743 mmHg 77%
    11:00 +14°C° 0 mm 6 mps 744 mmHg 73%
    12:00 +14°C° 0 mm 5 mps 745 mmHg 69%
    13:00 +14°C° 0 mm 5 mps 745 mmHg 69%
    14:00 +13°C° 0 mm 5 mps 746 mmHg 69%
    15:00 +12°C° 0 mm 5 mps 746 mmHg 69%
    16:00 +10°C° 0 mm 5 mps 747 mmHg 70%
    17:00 +10°C° 0 mm 4 mps 747 mmHg 71%
    18:00 +9°C° 0 mm 3 mps 748 mmHg 72%
    19:00 +8°C° 0 mm 3 mps 748 mmHg 74%
    20:00 +7°C° 0 mm 3 mps 749 mmHg 77%
    21:00 +7°C° 0 mm 3 mps 749 mmHg 79%
    22:00 +5°C° 0 mm 3 mps 750 mmHg 80%
    23:00 +5°C° 0 mm 2 mps 750 mmHg 81%

    Tomorrow, 16 October, Wednesday

    Time Temperature Precipitation Wind Pressure Humidity
    00:00 +4°C° 0 mm 2 mps 750 mmHg 83%
    01:00 +4°C° 0 mm 2 mps 751 mmHg 85%
    02:00 +4°C° 0 mm 2 mps 751 mmHg 87%
    03:00 +3°C° 0 mm 2 mps 752 mmHg 89%
    04:00 +3°C° 0 mm 2 mps 752 mmHg 89%
    05:00 +3°C° 0 mm 2 mps 752 mmHg 90%
    06:00 +2°C° 0 mm 2 mps 752 mmHg 90%
    07:00 +3°C° 0 mm 2 mps 752 mmHg 86%
    08:00 +2°C° 0 mm 3 mps 752 mmHg 82%
    09:00 +3°C° 0 mm 3 mps 752 mmHg 77%
    10:00 +4°C° 0 mm 3 mps 752 mmHg 74%
    11:00 +5°C° 0 mm 4 mps 752 mmHg 71%
    12:00 +6°C° 0 mm 4 mps 752 mmHg 67%
    13:00 +7°C° 0 mm 4 mps 752 mmHg 67%
    14:00 +8°C° 0 mm 3 mps 752 mmHg 67%
    15:00 +9°C° 0 mm 3 mps 751 mmHg 67%
    16:00 +7°C° 0 mm 4 mps 751 mmHg 69%
    17:00 +7°C° 0 mm 4 mps 750 mmHg 71%
    18:00 +6°C° 0 mm 4 mps 750 mmHg 74%
    19:00 +7°C° 0 mm 4 mps 750 mmHg 74%
    20:00 +7°C° 0 mm 5 mps 749 mmHg 73%
    21:00 +7°C° 0 mm 5 mps 749 mmHg 73%
    22:00 +7°C° 0 mm 5 mps 749 mmHg 73%
    23:00 +7°C° 0 mm 5 mps 748 mmHg 74%

    Day after tomorrow, 17 October, Thursday

    Time Temperature Precipitation Wind Pressure Humidity
    00:00 +5°C° 0 mm 6 mps 748 mmHg 74%
    01:00 +5°C° 0 mm 6 mps 748 mmHg 76%
    02:00 +5°C° 0 mm 6 mps 748 mmHg 79%
    03:00 +6°C° 0 mm 5 mps 747 mmHg 81%
    04:00 +7°C° 0 mm 6 mps 747 mmHg 82%
    05:00 +7°C° 0 mm 6 mps 747 mmHg 84%
    06:00 +7°C° 0 mm 6 mps 746 mmHg 86%
    07:00 +7°C° 0 mm 6 mps 746 mmHg 86%
    08:00 +8°C° 0 mm 6 mps 746 mmHg 86%
    09:00 +8°C° 0 mm 6 mps 745 mmHg 85%
    10:00 +10°C° 0 mm 6 mps 745 mmHg 81%
    11:00 +11°C° 0 mm 6 mps 745 mmHg 78%
    12:00 +14°C° 0 mm 5 mps 745 mmHg 74%
    13:00 +15°C° 0 mm 5 mps 745 mmHg 72%
    14:00 +15°C° 0 mm 5 mps 745 mmHg 70%
    15:00 +16°C° 0 mm 5 mps 744 mmHg 68%
    16:00 +15°C° 0 mm 4 mps 744 mmHg 73%
    17:00 +14°C° 0 mm 4 mps 744 mmHg 78%
    18:00 +12°C° 0 mm 3 mps 744 mmHg 83%
    19:00 +12°C° 0 mm 3 mps 744 mmHg 85%
    20:00 +12°C° 0 mm 3 mps 744 mmHg 87%
    21:00 +11°C° 0 mm 3 mps 744 mmHg 89%
    22:00 +11°C° 0.1 mm 3 mps 743 mmHg 89%
    23:00 +11°C° 0.1 mm 3 mps 743 mmHg 90%

    18 October, Friday

    Time Temperature Precipitation Wind Pressure Humidity
    00:00 +11°C° 0.1 mm 3 mps 743 mmHg 90%
    01:00 +11°C° 0.2 mm 3 mps 743 mmHg 90%
    02:00 +10°C° 0.2 mm 3 mps 743 mmHg 91%
    03:00 +10°C° 0.2 mm 3 mps 743 mmHg 91%
    04:00 +10°C° 0 mm 3 mps 743 mmHg 92%
    05:00 +10°C° 0 mm 3 mps 743 mmHg 93%
    06:00 +9°C° 0 mm 3 mps 743 mmHg 94%
    07:00 +9°C° 0.1 mm 2 mps 743 mmHg 93%
    08:00 +10°C° 0.1 mm 2 mps 743 mmHg 92%
    09:00 +10°C° 0.1 mm 2 mps 743 mmHg 91%
    10:00 +12°C° 0 mm 2 mps 743 mmHg 87%
    11:00 +13°C° 0 mm 2 mps 744 mmHg 83%
    12:00 +14°C° 0 mm 2 mps 744 mmHg 80%
    13:00 +14°C° 0.1 mm 2 mps 745 mmHg 79%
    14:00 +14°C° 0.1 mm 2 mps 745 mmHg 78%
    15:00 +14°C° 0.1 mm 2 mps 745 mmHg 77%
    16:00 +13°C° 0.1 mm 2 mps 745 mmHg 81%
    17:00 +11°C° 0.1 mm 3 mps 745 mmHg 86%
    18:00 +10°C° 0.1 mm 3 mps 746 mmHg 90%
    19:00 +10°C° 0 mm 3 mps 746 mmHg 90%
    20:00 +9°C° 0 mm 3 mps 746 mmHg 91%
    21:00 +9°C° 0 mm 3 mps 747 mmHg 91%
    22:00 +8°C° 0 mm 2 mps 747 mmHg 91%
    23:00 +8°C° 0 mm 2 mps 747 mmHg 91%

    19 October, Saturday

    Time Temperature Precipitation Wind Pressure Humidity
    00:00 +9°C° 0 mm 1 mps 747 mmHg 91%
    01:00 +8°C° 0.1 mm 2 mps 747 mmHg 91%
    02:00 +8°C° 0.1 mm 2 mps 747 mmHg 91%
    03:00 +8°C° 0.1 mm 2 mps 747 mmHg 91%
    04:00 +8°C° 0 mm 1 mps 748 mmHg 91%
    05:00 +8°C° 0 mm 1 mps 748 mmHg 92%
    06:00 +8°C° 0 mm 1 mps 748 mmHg 92%
    07:00 +8°C° 0 mm 1 mps 748 mmHg 91%
    08:00 +8°C° 0 mm 1 mps 749 mmHg 89%
    09:00 +9°C° 0 mm 1 mps 749 mmHg 88%
    10:00 +9°C° 0 mm 1 mps 749 mmHg 85%
    11:00 +10°C° 0 mm 1 mps 749 mmHg 83%
    12:00 +11°C° 0 mm 1 mps 750 mmHg 80%
    13:00 +11°C° 0 mm 1 mps 750 mmHg 79%
    14:00 +11°C° 0 mm 1 mps 750 mmHg 78%
    15:00 +11°C° 0 mm 1 mps 750 mmHg 77%
    16:00 +11°C° 0 mm 1 mps 750 mmHg 79%
    17:00 +11°C° 0 mm 1 mps 750 mmHg 80%
    18:00 +10°C° 0 mm 1 mps 750 mmHg 82%
    19:00 +10°C° 0 mm 1 mps 750 mmHg 83%
    20:00 +10°C° 0 mm 1 mps 751 mmHg 83%
    21:00 +10°C° 0 mm 1 mps 751 mmHg 84%
    22:00 +9°C° 0 mm 1 mps 751 mmHg 87%
    23:00 +9°C° 0 mm 1 mps 751 mmHg 89%

    20 October, Sunday

    Time Temperature Precipitation Wind Pressure Humidity
    00:00 +8°C° 0 mm 1 mps 751 mmHg 91%
    01:00 +8°C° 0 mm 1 mps 751 mmHg 92%
    02:00 +6°C° 0 mm 2 mps 751 mmHg 93%
    03:00 +6°C° 0 mm 2 mps 751 mmHg 94%
    04:00 +7°C° 0 mm 1 mps 751 mmHg 95%
    05:00 +7°C° 0 mm 1 mps 752 mmHg 95%
    06:00 +6°C° 0 mm 1 mps 752 mmHg 95%
    07:00 +6°C° 0 mm 2 mps 752 mmHg 93%
    08:00 +6°C° 0 mm 2 mps 752 mmHg 92%
    09:00 +7°C° 0 mm 2 mps 752 mmHg 90%
    10:00 +8°C° 0 mm 2 mps 752 mmHg 86%
    11:00 +9°C° 0 mm 2 mps 752 mmHg 82%
    12:00 +10°C° 0 mm 3 mps 752 mmHg 78%
    13:00 +10°C° 0 mm 3 mps 752 mmHg 77%
    14:00 +10°C° 0 mm 3 mps 752 mmHg 76%
    15:00 +11°C° 0 mm 3 mps 752 mmHg 76%
    16:00 +10°C° 0 mm 3 mps 752 mmHg 80%
    17:00 +9°C° 0 mm 3 mps 752 mmHg 84%
    18:00 +8°C° 0 mm 3 mps 751 mmHg 88%
    19:00 +8°C° 0 mm 3 mps 751 mmHg 89%
    20:00 +7°C° 0 mm 3 mps 752 mmHg 89%
    21:00 +7°C° 0 mm 3 mps 752 mmHg 90%
    22:00 +7°C° 0 mm 3 mps 751 mmHg 91%
    23:00 +7°C° 0 mm 3 mps 751 mmHg 92%
    Show more